Regional Weather Roundup
Issued by NWS

Home | Current Version | Previous Version | Text Only | Print | Product List | Glossary Off
Versions: 1 2 3 4 5 6 7 8 9 10 11 12 13 14 15 16 17 18 19 20 21 22 23 24 25 26 27 28 29 30 31 32 33 34 35 36 37 38 39 40 41 42 43 44 45 46 47 48 49 50

000
ASUS43 KMPX 011310
RWRMN
WEATHER ROUNDUP FOR MINNESOTA
NATIONAL WEATHER SERVICE TWIN CITIES/CHANHASSEN MN
800 AM CDT WED JUL 01 2015


NOTE: "FAIR" INDICATES FEW OR NO CLOUDS BELOW 12,000 FEET WITH NO
SIGNIFICANT WEATHER AND/OR OBSTRUCTIONS TO VISIBILITY. N/A MEANS
CURRENT SKY AND/OR WEATHER CONDITIONS ARE NOT AVAILABLE.

MNZ060>063-068>070-011400-
   Twin Cities Metro

CITY           SKY/WX    TMP DP  RH WIND       PRES   REMARKS
TWIN CITIES    CLOUDY    60  48  64 E8        29.99F
ST PAUL        PTSUNNY   58  48  69 SE6       30.00F
CRYSTAL        PTSUNNY   61  48  62 E3        29.99R
BLAINE         CLOUDY    61  52  72 E5        30.00S
LAKEVILLE      MOSUNNY   55  52  88 E6        30.00R
EDEN PRAIRIE   PTSUNNY   60  51  72 SE7       29.99R
SOUTH ST PAUL  PTSUNNY   58  48  68 E5        30.00S
LAKE ELMO      FAIR      55  48  76 E5        30.02S
$$
MNZ001>005-007-008-013>017-022>024-027-028-011400-
   Northwest Minnesota

CITY           SKY/WX    TMP DP  RH WIND       PRES   REMARKS
BEMIDJI        SUNNY     62  57  85 SE5       29.98S
HALLOCK        SUNNY     63  59  88 CALM      29.94S
ROSEAU         SUNNY     63  57  82 S3        29.96S
WARROAD        SUNNY     61  57  88 CALM      29.97S
THIEF RVR FALL SUNNY     61  55  82 E3        29.96S
CROOKSTON      SUNNY     64  57  77 SE3       29.95S
FOSSTON        MOSUNNY   63  57  82 CALM      29.97R
DETROIT LAKES  PTSUNNY   64  61  88 S6        29.98R
MOORHEAD       MOSUNNY   66  63  88 S3        29.96R
PARK RAPIDS    MOSUNNY   63  57  81 SE7       29.98S
MAHNOMEN       FAIR      64  60  87 S7        29.96S
$$
MNZ006-009>011-018-025>026-011400-
   North Central Minnesota

CITY           SKY/WX    TMP DP  RH WIND       PRES   REMARKS
BAUDETTE       SUNNY     58  53  84 SE3       29.97S
FLAG ISLAND    SUNNY     64  55  72 S3        29.95S
INTL FALLS     SUNNY     56  53  90 S5        29.99R
WASKISH        SUNNY     61  57  88 CALM      29.98S FOG
BIG FORK       SUNNY     57  55  94 S3        30.00S
LONGVILLE      PTSUNNY   61  57  88 CALM      29.99S
GRAND RAPIDS   SUNNY     54  50  87 SE6       30.01S
CRANE LAKE     SUNNY     54  52  94 S2        30.02S
ORR            SUNNY     54  48  82 CALM      29.99S
COOK           SUNNY     55  52  88 CALM      30.02S
WALKER         FAIR      63  56  80 S6        29.98S
$$
MNZ012-019>021-037-011400-
   Northeast Minnesota

CITY           SKY/WX    TMP DP  RH WIND       PRES   REMARKS
DULUTH         MOSUNNY   56  50  80 S3        30.02S
ELY            PTSUNNY   54  48  82 CALM      30.02R
HIBBING        SUNNY     53  50  89 SE3       30.02S
EVELETH        SUNNY     52  50  93 CALM      30.03S
DULUTH HARBOR  MOSUNNY   57  54  88 NE3       30.04R
TWO HARBORS    MOSUNNY   57  50  77 CALM      30.01S
SILVER BAY     MOSUNNY   55  46  71 CALM      30.02R
GRAND MARAIS     N/A     50  44  80 CALM      30.03R
G MARAIS ARPRT SUNNY     55  46  71 CALM      30.03S
$$
MNZ029>031-032-039>041-046>048-054>057-064-011400-
   West Central Minnesota

CITY           SKY/WX    TMP DP  RH WIND       PRES   REMARKS
FERGUS FALLS   CLOUDY    63  63 100 SE6       29.97R
WHEATON        LGT RAIN  61  57  88 SE7       29.97R
MORRIS         DRIZZLE   63  57  82 SE8       29.96R
ALEXANDRIA     CLOUDY    61  59  93 SE5       29.99S
ELBOW LAKE     PTSUNNY   62  59  91 S7        29.97R
WADENA           N/A     63  57  82 SE3       29.98R
GLENWOOD       CLOUDY    61  57  88 SE5       29.98S
APPLETON       LGT RAIN  63  57  82 SE7       29.95R
BENSON         DRIZZLE   61  55  82 SE6       29.97R
ORTONVILLE     CLOUDY    63  57  82 SE6       29.95R
MADISON        LGT RAIN  63  59  88 SE8       29.95R
WILLMAR        LGT RAIN  63  55  77 E8        29.99R
$$
MNZ033>034-036-042>043-049>051-058-059-011400-
   Central Minnesota

CITY           SKY/WX    TMP DP  RH WIND       PRES   REMARKS
ST CLOUD       CLOUDY    59  52  77 E3        29.99S
SAUK CENTRE    FAIR      59  56  88 SE3       29.99S
PAYNESVILLE    CLOUDY    58  52  80 E6        29.99S
AITKIN         PTSUNNY   64  54  68 S3        29.99S
PINE RIVER     MOSUNNY   61  55  82 SE5       30.03R
BRAINERD       MOSUNNY   58  53  84 CALM      30.00S
STAPLES        PTSUNNY   61  55  82 S5        29.99R
LONG PRAIRIE   FAIR      59  54  82 CALM      30.00S
LITTLE FALLS   CLOUDY    61  52  72 SE6       29.99S
LITCHFIELD     CLOUDY    63  55  77 E7        30.00R
BUFFALO        CLOUDY    60  50  69 CALM      30.01R
MAPLE LAKE     CLOUDY    61  52  71 E3        30.01R
$$
MNZ037-044-045-052-053-011400-
   East Central Minnesota

CITY           SKY/WX    TMP DP  RH WIND       PRES   REMARKS
PRINCETON      CLOUDY    61  52  72 CALM      30.00S
MORA           PTSUNNY   55  50  82 CALM      30.03R
CAMBRIDGE      CLOUDY    61  46  59 SE3       29.99S
RUSH CITY      CLOUDY    56  50  80 CALM      30.02S
MOOSE LAKE     PTSUNNY   54  54 100 CALM      30.01R
HINCKLEY       FAIR      55  52  88 CALM      30.02S
CLOQUET        MOSUNNY   55  52  88 E3        30.02S
MCGREGOR       PTSUNNY   55  52  88 SE3       30.02S
$$
MNZ071>073-080-081-089-090-097-098-011400-
   Southwest Minnesota

CITY           SKY/WX    TMP DP  RH WIND       PRES   REMARKS
MONTEVIDEO     LGT RAIN  61  61 100 S9        29.96S
GRANITE FALLS  DRIZZLE   60  57  88 E6        29.98S
CANBY          LGT RAIN  61  59  94 SE6       29.96R
MARSHALL       CLOUDY    61  54  77 E8          N/A
REDWOOD FALLS  CLOUDY    61  55  81 E6        29.96S
OLIVIA         LGT RAIN  59  50  72 E6        29.97S
PIPESTONE      CLOUDY    63  59  88 SE6       29.95R
WINDOM         LGT RAIN  59  55  88 E5        29.97R
WORTHINGTON    CLOUDY    61  55  82 E8        29.96R
JACKSON        CLOUDY    61  57  88 E7        29.96F
TRACY          DRIZZLE   61  59  94 E6        29.97R
SLAYTON        LGT RAIN  60  58  95 CALM      29.98R
$$
MNZ065>067-074>077-082>085-091>093-011400-
   South Central Minnesota

CITY           SKY/WX    TMP DP  RH WIND       PRES   REMARKS
MANKATO        CLOUDY    61  52  72 E8        29.98S
NEW ULM        CLOUDY    61  54  77 E7        29.97S
ST JAMES       PTSUNNY   61  57  88 E5        29.98R
FAIRMONT       CLOUDY    61  52  72 E7        29.96R
GLENCOE        CLOUDY    60  54  80 E5        29.99R
FARIBAULT      MOSUNNY   59  52  77 E3        29.99S
OWATONNA       MOSUNNY   61  52  72 E8        29.99R
WASECA         PTSUNNY   55  50  82 E7        30.01R
ALBERT LEA     MOSUNNY   59  54  82 E7        29.98R
$$
MNZ078>079-086>088-094>096-011400-
   Southeast Minnesota

CITY           SKY/WX    TMP DP  RH WIND       PRES   REMARKS
ROCHESTER      SUNNY     57  51  80 E7        30.01R
RED WING       MOSUNNY   57  48  72 E6        29.99S
STANTON        MOSUNNY   57  52  82 CALM      29.99R
DODGE CENTER   SUNNY     57  54  88 E7        30.00S
WINONA         SUNNY     59  50  72 E3        30.00S
AUSTIN         MOSUNNY   57  54  88 E8        29.98S
PRESTON        SUNNY     55  50  83 E6        30.01R
$$
ABBREVIATIONS USED IN REMARKS
   TC - TEMPERATURES IN CELSIUS
  WCI - WIND CHILL INDEX
   HX - HEAT INDEX
  VSB - VISIBILITY
$$


USA.gov is the U.S. government's official web portal to all federal, state and local government web resources and services.